Weather History for Abilene, TX

Change the Weather History Date:

Sunday, September 2, 2012

  Actual Average Record
Temperature  
Mean Temperature 88 °F 80 °F  
Max Temperature 100 °F 91 °F 105 °F (2000)
Min Temperature 75 °F 69 °F 55 °F (1915)
Degree Days  
Heating Degree Days 0 0  
Month to date heating degree days 0 0  
Since 1 July heating degree days 0 0  
Cooling Degree Days 23 15  
Month to date cooling degree days 46 30  
Year to date cooling degree days 2534 1975  
Growing Degree Days 38 (Base 50)    
Moisture  
Dew Point 63 °F    
Average Humidity 52    
Maximum Humidity 74    
Minimum Humidity 29    
Precipitation  
Precipitation 0.00 in 0.08 in 2.35 in (1935)
Month to date precipitation 0.00 0.16  
Year to date precipitation 13.66 17.12  
Sea Level Pressure  
Sea Level Pressure 29.90 in    
Wind  
Wind Speed 10 mph (South)    
Max Wind Speed 20 mph    
Max Gust Speed 24 mph    
Visibility 10 miles    
Events      
T = Trace of Precipitation, MM = Missing Value Source: NWS Daily Summary

Daily Weather History Graph

Daily Weather History Graph

Search for Another Location

Airport:

Trip Planner

Search our weather history database for the weather conditions in past years. The results will help you decide how hot, cold, wet, or windy it might be!

Date:

Astronomy

Sep. 02, 2012 Rise Set
Actual Time 7:14 AM CDT 8:01 PM CDT
Civil Twilight 6:49 AM CDT 8:26 PM CDT
Nautical Twilight 6:20 AM CDT 8:55 PM CDT
Astronomical Twilight 5:50 AM CDT 9:25 PM CDT
Moon 9:02 PM CDT (9/2) 9:13 AM CDT (9/2)
Length of Visible Light 13h 36m
Length of Day
12h 46m
Waning Gibbous, 95% of the Moon is Illuminated
Sep 2
Waning Gibbous
Sep 8
Last Quarter
Sep 15
New
Sep 22
First Quarter
Sep 29
Full

Hourly Weather History & Observations

Time (CDT) Temp. Heat Index Dew Point Humidity Pressure Visibility Wind Dir Wind Speed Gust Speed Precip Events Conditions
12:52 AM 84.9 °F 85.4 °F 62.1 °F 46% 29.92 in 10.0 mi South 10.4 mph - N/A   Clear
1:52 AM 82.0 °F 83.1 °F 63.0 °F 52% 29.92 in 10.0 mi South 8.1 mph - N/A   Clear
2:52 AM 80.1 °F 81.7 °F 64.0 °F 58% 29.92 in 10.0 mi South 6.9 mph - N/A   Clear
3:52 AM 79.0 °F - 66.0 °F 64% 29.92 in 10.0 mi South 8.1 mph - N/A   Clear
4:52 AM 78.1 °F - 66.0 °F 66% 29.92 in 10.0 mi South 8.1 mph - N/A   Clear
5:52 AM 77.0 °F - 64.9 °F 66% 29.93 in 10.0 mi SSE 6.9 mph - N/A   Clear
6:52 AM 75.9 °F - 66.0 °F 71% 29.94 in 10.0 mi South 8.1 mph - N/A   Clear
7:52 AM 75.9 °F - 66.0 °F 71% 29.96 in 10.0 mi South 6.9 mph - N/A   Clear
8:52 AM 80.1 °F 82.3 °F 66.9 °F 64% 29.96 in 10.0 mi SSW 10.4 mph 18.4 mph N/A   Clear
9:52 AM 82.9 °F 85.4 °F 66.9 °F 58% 29.97 in 10.0 mi SSW 12.7 mph - N/A   Clear
10:52 AM 87.1 °F 89.9 °F 66.9 °F 51% 29.97 in 10.0 mi SW 16.1 mph 23.0 mph N/A   Clear
11:52 AM 91.0 °F 93.8 °F 66.0 °F 44% 29.96 in 10.0 mi SSW 13.8 mph - N/A   Clear
12:52 PM 93.0 °F 95.0 °F 64.9 °F 39% 29.94 in 10.0 mi South 13.8 mph - N/A   Clear
1:52 PM 93.9 °F 95.6 °F 64.0 °F 37% 29.91 in 10.0 mi SSE 8.1 mph - N/A   Clear
2:52 PM 96.1 °F 97.3 °F 63.0 °F 33% 29.89 in 10.0 mi South 5.8 mph - N/A   Partly Cloudy
3:52 PM 96.1 °F 96.4 °F 61.0 °F 31% 29.86 in 10.0 mi South 10.4 mph - N/A   Clear
4:52 PM 97.0 °F 96.9 °F 60.1 °F 29% 29.85 in 10.0 mi South 9.2 mph - N/A   Partly Cloudy
5:52 PM 98.1 °F 98.1 °F 60.1 °F 28% 29.83 in 10.0 mi SSW 9.2 mph - N/A   Partly Cloudy
6:52 PM 97.0 °F 96.9 °F 60.1 °F 29% 29.83 in 10.0 mi South 12.7 mph - N/A   Clear
7:52 PM 93.9 °F 93.6 °F 60.1 °F 32% 29.83 in 10.0 mi SSE 6.9 mph - N/A   Clear
8:52 PM 91.0 °F 90.9 °F 61.0 °F 36% 29.84 in 10.0 mi SE 10.4 mph - N/A   Clear
9:52 PM 87.1 °F 87.0 °F 61.0 °F 41% 29.86 in 10.0 mi SSE 8.1 mph - N/A   Clear
10:52 PM 84.9 °F 85.4 °F 62.1 °F 46% 29.87 in 10.0 mi SSE 9.2 mph - N/A   Clear
11:52 PM 84.9 °F 85.4 °F 62.1 °F 46% 29.88 in 10.0 mi SSE 9.2 mph - N/A   Clear